IRIDIUM 33 DEB, 33887

Orbit data source: Space-Track

IRIDIUM 33 DEB, 33887 is space debris in LEO originally from a launch on Sun, 14 Sep 1997 UTC launched from the Tyuratam Missile And Space Complex (TTMTR). The debris from Iridium 33, an American commercial communications satellite, has been tracked extensively since its accidental collision with the defunct Russian satellite Cosmos 2251 in 2009. This event, occurring at high speed in low Earth orbit (LEO), generated thousands of pieces of space debris, significantly increasing the risk of further collisions. The Iridium 33 debris cloud has impacted space traffic management and orbital debris mitigation strategies, making it a subject of ongoing study in space situational awareness.

Loading next visibility...
Identifier
33887, 1997-051BG
Orbit
LEO
Country
Flag of USUS
Related business
Manufacturer
Unknown
Mission
Spacecraft
Bus & Motor
Unknown
Mass
Unknown
Launch date (UTC)
1997-09-14 (28 years ago)
Launch vehicle
Unknown
Launch site
Tyuratam Missile And Space Complex (TTMTR)
Object type
Payload
Rocket body
Debris
Shape & HBR
Unknown shape, 0.2 m
Radar Cross Section
Small (<0.1 m²)

Expand to show TLE details & history
Last TLE update: 13 hours ago

TLE from 13 hours ago
0 IRIDIUM 33 DEB
1 33887U 97051BG  25355.03461536  .00000339  00000-0  10739-3 0  9997
2 33887  86.3041 359.8173 0005316 193.4889 220.2624 14.37227835882846
Epoch: 2025-12-21T00:49Z
TLE epoch observation values (Epoch: 2025-12-21T00:49:50.767Z)
Latitude
53.64893°
Longitude
-97.48853°
Altitude
779.461 km
Speed
7.468 km/s
True Right ascension
00h 19m 18s
True Declination
53° 29' 06"
Sunlit
Object was in daylight at epoch
Visualization orbit readout
Latitude
Unknown
Longitude
Unknown
Altitude
Unknown
Speed
Unknown
Apparent Right ascension
Unknown
Apparent Declination
Unknown
Sunlit
N/A
Visualization observer readout
Local Sidereal Time
13:04:04
Azimuth
Unknown
Elevation
Unknown
Doppler factor
Unknown
Orbital elements
Apogee altitude
768.432 km
Perigee altitude
760.837 km
Semi-major axis
7,142.772 km
Eccentricity
0.00053
Inclination
86.3041°
RAAN
359.8173°
Arg. of periapsis
193.4889°
True anomaly
220.22305°
Mean anomaly
220.2624°
Eccentric anomaly
220.24272°
Mean motion
3.59537 °/min
Orbital period
100.13 mins
BSTAR
0.00010739
Loading maneuver chart data...
Computing Atmospheric mass density...
Loading historical data...
Loading historical data...
Loading historical data...
Loading historical data...
Loading historical data...
Loading historical data...
Loading historical data...

Documentation

Showing up to 5 results
|